QPF
0.00 0.00 0.01 0.01 0.01 0.01 0.01 0.01 0.01 0.01 0.01 0.01 0.02 0.02 0.01 0.01 0.01 0.01 0.00 0.00 0.00 0.00 0.00 0.00 0.00 0.00 0.00 0.00 0.00 0.00 0.00 0.00 0.00 0.00 0.00 0.00 0.00 0.00 0.00 0.00 0.00 0.00 0.00 0.00 0.00 0.00 0.00 0.00 0.00
0.00 0.00 0.01 0.01 0.01 0.01 0.01 0.01 0.00 0.01 0.01 0.02 0.01 0.01 0.01 0.00 0.00 0.00 0.00 0.00 0.00 0.00 0.00 0.00 0.00 0.00 0.00 0.00 0.00 0.00 0.00 0.00 0.00 0.00 0.00 0.00 0.00 0.00 0.00 0.00 0.00 0.00 0.00 0.00 0.00 0.00 0.00 0.00 0.00
0.00 0.00 0.01 0.01 0.02 0.01 0.00 0.00 0.01 0.01 0.01 0.02 0.01 0.01 0.01 0.00 0.00 0.00 0.00 0.00 0.00 0.00 0.00 0.00 0.00 0.00 0.00 0.00 0.00 0.00 0.00 0.00 0.00 0.00 0.00 0.00 0.00 0.00 0.00 0.00 0.00 0.00 0.00 0.00 0.00 0.00 0.00 0.00 0.00
0.00 0.00 0.01 0.01 0.01 0.01 0.00 0.00 0.01 0.01 0.01 0.01 0.01 0.01 0.00 0.00 0.00 0.00 0.01 0.00 0.00 0.00 0.00 0.00 0.00 0.00 0.00 0.00 0.00 0.00 0.00 0.00 0.00 0.00 0.00 0.00 0.00 0.00 0.00 0.00 0.00 0.00 0.00 0.00 0.00 0.00 0.00 0.00 0.00
0.00 0.01 0.01 0.01 0.01 0.00 0.00 0.00 0.01 0.01 0.01 0.01 0.00 0.00 0.00 0.00 0.00 0.01 0.00 0.00 0.00 0.00 0.00 0.00 0.01 0.00 0.00 0.00 0.00 0.00 0.00 0.00 0.00 0.00 0.00 0.00 0.00 0.00 0.00 0.00 0.00 0.00 0.00 0.00 0.00 0.00 0.00 0.00 0.00
0.00 0.01 0.01 0.01 0.01 0.00 0.00 0.00 0.00 0.01 0.01 0.01 0.01 0.01 0.00 0.00 0.01 0.01 0.00 0.00 0.00 0.00 0.00 0.01 0.01 0.01 0.00 0.00 0.00 0.00 0.00 0.00 0.01 0.01 0.01 0.01 0.01 0.01 0.01 0.01 0.01 0.00 0.00 0.00 0.00 0.00 0.01 0.00 0.00
0.00 0.00 0.01 0.01 0.01 0.00 0.00 0.00 0.00 0.00 0.01 0.01 0.01 0.01 0.01 0.00 0.01 0.01 0.01 0.00 0.01 0.00 0.00 0.01 0.01 0.01 0.01 0.01 0.01 0.01 0.01 0.01 0.01 0.01 0.01 0.01 0.01 0.01 0.01 0.01 0.01 0.01 0.01 0.00 0.00 0.00 0.00 0.01 0.01
0.00 0.00 0.00 0.01 0.00 0.00 0.00 0.00 0.00 0.01 0.01 0.01 0.01 0.01 0.01 0.01 0.01 0.01 0.01 0.01 0.02 0.01 0.01 0.01 0.01 0.01 0.01 0.01 0.01 0.01 0.01 0.01 0.01 0.01 0.01 0.01 0.01 0.01 0.01 0.01 0.01 0.01 0.01 0.01 0.01 0.01 0.01 0.01 0.01
0.00 0.00 0.00 0.00 0.00 0.00 0.00 0.00 0.01 0.01 0.01 0.02 0.01 0.01 0.01 0.01 0.02 0.01 0.01 0.01 0.01 0.01 0.01 0.01 0.01 0.01 0.01 0.01 0.01 0.02 0.02 0.01 0.01 0.01 0.01 0.01 0.01 0.01 0.01 0.01 0.01 0.01 0.03 0.04 0.04 0.04 0.03 0.02 0.01
0.00 0.00 0.00 0.00 0.00 0.00 0.00 0.01 0.00 0.01 0.01 0.01 0.01 0.01 0.01 0.01 0.02 0.02 0.02 0.02 0.02 0.01 0.01 0.01 0.01 0.01 0.02 0.02 0.02 0.03 0.03 0.02 0.02 0.01 0.02 0.02 0.02 0.02 0.02 0.02 0.04 0.06 0.10 0.12 0.11 0.10 0.09 0.07 0.04
0.00 0.00 0.00 0.00 0.00 0.00 0.00 0.00 0.01 0.02 0.02 0.01 0.01 0.01 0.01 0.02 0.03 0.04 0.04 0.04 0.04 0.04 0.03 0.02 0.02 0.03 0.03 0.05 0.06 0.04 0.08 0.06 0.03 0.02 0.03 0.03 0.03 0.03 0.03 0.04 0.05 0.09 0.12 0.14 0.17 0.18 0.17 0.14 0.11
0.00 0.00 0.00 0.00 0.00 0.00 0.00 0.00 0.01 0.03 0.04 0.01 0.00 0.01 0.01 0.03 0.05 0.05 0.08 0.13 0.09 0.07 0.06 0.06 0.09 0.11 0.16 0.16 0.09 0.06 0.12 0.09 0.07 0.05 0.06 0.05 0.06 0.06 0.07 0.06 0.06 0.09 0.13 0.16 0.19 0.20 0.19 0.20 0.18
0.00 0.00 0.00 0.00 0.00 0.00 0.00 0.00 0.01 0.01 0.01 0.01 0.01 0.01 0.02 0.04 0.06 0.06 0.10 0.22 0.20 0.19 0.16 0.17 0.21 0.19 0.23 0.17 0.14 0.16 0.20 0.17 0.14 0.12 0.09 0.09 0.10 0.11 0.12 0.13 0.14 0.16 0.18 0.21 0.22 0.22 0.25 0.26 0.24
0.00 0.00 0.00 0.00 0.00 0.00 0.01 0.01 0.01 0.02 0.01 0.01 0.01 0.02 0.04 0.04 0.07 0.13 0.14 0.16 0.17 0.21 0.24 0.24 0.22 0.25 0.27 0.29 0.32 0.32 0.25 0.20 0.17 0.15 0.13 0.14 0.13 0.14 0.17 0.18 0.18 0.16 0.14 0.15 0.15 0.15 0.21 0.25 0.25
0.00 0.00 0.00 0.00 0.00 0.00 0.01 0.02 0.02 0.02 0.02 0.03 0.03 0.04 0.05 0.06 0.07 0.10 0.13 0.14 0.17 0.21 0.23 0.25 0.30 0.36 0.40 0.38 0.40 0.36 0.29 0.27 0.21 0.17 0.15 0.14 0.14 0.13 0.15 0.14 0.12 0.09 0.07 0.08 0.09 0.12 0.17 0.20 0.22
0.00 0.00 0.00 0.00 0.00 0.00 0.01 0.02 0.04 0.05 0.05 0.04 0.04 0.04 0.05 0.06 0.07 0.09 0.12 0.14 0.17 0.19 0.22 0.30 0.32 0.35 0.36 0.37 0.39 0.30 0.25 0.21 0.17 0.14 0.11 0.09 0.08 0.08 0.08 0.07 0.07 0.06 0.06 0.08 0.10 0.12 0.13 0.14 0.16
0.00 0.00 0.00 0.00 0.00 0.01 0.01 0.02 0.04 0.05 0.07 0.07 0.07 0.07 0.08 0.09 0.09 0.11 0.13 0.14 0.14 0.17 0.20 0.23 0.27 0.28 0.27 0.29 0.29 0.24 0.18 0.14 0.11 0.08 0.06 0.05 0.05 0.05 0.05 0.06 0.07 0.07 0.07 0.08 0.08 0.08 0.08 0.09 0.12
0.00 0.00 0.00 0.01 0.01 0.01 0.01 0.02 0.04 0.06 0.09 0.09 0.10 0.10 0.11 0.12 0.11 0.10 0.10 0.09 0.10 0.12 0.14 0.16 0.19 0.18 0.17 0.15 0.14 0.12 0.11 0.09 0.08 0.05 0.03 0.03 0.03 0.03 0.03 0.03 0.03 0.03 0.04 0.05 0.05 0.06 0.07 0.08 0.12
0.00 0.00 0.01 0.01 0.01 0.02 0.03 0.04 0.05 0.09 0.15 0.14 0.11 0.11 0.10 0.11 0.09 0.06 0.06 0.06 0.07 0.08 0.08 0.11 0.11 0.10 0.10 0.08 0.06 0.06 0.04 0.04 0.04 0.03 0.02 0.02 0.01 0.01 0.01 0.01 0.01 0.01 0.01 0.01 0.01 0.02 0.03 0.05 0.09
0.01 0.01 0.01 0.01 0.01 0.02 0.03 0.04 0.06 0.09 0.14 0.14 0.10 0.08 0.07 0.07 0.05 0.04 0.04 0.04 0.03 0.03 0.04 0.05 0.05 0.04 0.04 0.03 0.02 0.01 0.01 0.01 0.01 0.01 0.01 0.01 0.01 0.01 0.00 0.00 0.00 0.00 0.00 0.00 0.00 0.01 0.02 0.03 0.06
0.01 0.01 0.01 0.01 0.01 0.01 0.02 0.03 0.04 0.06 0.10 0.11 0.08 0.06 0.06 0.05 0.04 0.02 0.02 0.02 0.01 0.01 0.01 0.02 0.02 0.02 0.01 0.01 0.00 0.00 0.00 0.00 0.00 0.00 0.00 0.00 0.00 0.00 0.00 0.00 0.00 0.00 0.00 0.00 0.00 0.01 0.02 0.03 0.06
0.01 0.01 0.01 0.01 0.01 0.01 0.01 0.01 0.02 0.04 0.07 0.08 0.08 0.07 0.05 0.03 0.02 0.01 0.01 0.01 0.00 0.00 0.00 0.00 0.00 0.00 0.00 0.00 0.00 0.00 0.00 0.00 0.00 0.00 0.00 0.00 0.00 0.00 0.00 0.00 0.00 0.00 0.00 0.00 0.00 0.00 0.01 0.01 0.03
0.01 0.01 0.01 0.01 0.01 0.01 0.01 0.00 0.01 0.03 0.03 0.04 0.06 0.06 0.04 0.03 0.01 0.01 0.00 0.00 0.00 0.00 0.00 0.00 0.00 0.00 0.00 0.00 0.00 0.00 0.00 0.00 0.00 0.00 0.00 0.00 0.00 0.00 0.00 0.00 0.00 0.00 0.00 0.00 0.00 0.00 0.01 0.02 0.02
0.00 0.01 0.01 0.01 0.01 0.00 0.00 0.00 0.00 0.00 0.01 0.02 0.03 0.03 0.03 0.02 0.01 0.00 0.00 0.00 0.00 0.00 0.00 0.00 0.00 0.00 0.00 0.00 0.00 0.00 0.00 0.00 0.00 0.00 0.00 0.00 0.00 0.00 0.00 0.00 0.00 0.00 0.00 0.00 0.00 0.00 0.00 0.01 0.03
0.01 0.01 0.01 0.00 0.00 0.00 0.00 0.00 0.00 0.00 0.00 0.00 0.01 0.01 0.01 0.01 0.00 0.00 0.00 0.00 0.00 0.00 0.00 0.00 0.00 0.00 0.00 0.00 0.00 0.00 0.00 0.00 0.00 0.00 0.00 0.00 0.00 0.00 0.00 0.00 0.00 0.00 0.00 0.00 0.00 0.00 0.00 0.00 0.01
0.01 0.01 0.00 0.00 0.00 0.00 0.00 0.00 0.00 0.00 0.00 0.00 0.00 0.00 0.01 0.00 0.00 0.00 0.00 0.00 0.00 0.00 0.00 0.00 0.00 0.00 0.00 0.00 0.00 0.00 0.00 0.00 0.00 0.00 0.00 0.00 0.00 0.00 0.00 0.00 0.00 0.00 0.00 0.00 0.00 0.00 0.00 0.00 0.01
0.00 0.00 0.00 0.00 0.00 0.00 0.00 0.00 0.00 0.00 0.01 0.00 0.00 0.00 0.00 0.00 0.00 0.00 0.00 0.00 0.00 0.00 0.00 0.00 0.00 0.00 0.00 0.00 0.00 0.00 0.00 0.00 0.00 0.00 0.00 0.00 0.00 0.00 0.00 0.00 0.00 0.00 0.00 0.00 0.00 0.00 0.00 0.00 0.00
0.00 0.00 0.00 0.00 0.00 0.00 0.00 0.00 0.00 0.00 0.00 0.00 0.00 0.00 0.00 0.00 0.00 0.00 0.00 0.00 0.00 0.00 0.00 0.00 0.00 0.00 0.00 0.00 0.00 0.00 0.00 0.00 0.00 0.00 0.00 0.00 0.00 0.00 0.00 0.00 0.00 0.00 0.00 0.00 0.00 0.00 0.00 0.00 0.00
0.00 0.00 0.00 0.00 0.00 0.00 0.00 0.00 0.00 0.00 0.00 0.00 0.00 0.00 0.00 0.00 0.00 0.00 0.00 0.00 0.00 0.00 0.00 0.00 0.00 0.00 0.00 0.00 0.00 0.00 0.00 0.00 0.00 0.00 0.00 0.00 0.00 0.00 0.00 0.00 0.00 0.00 0.00 0.00 0.00 0.00 0.00 0.00 0.00
0.00 0.00 0.00 0.00 0.00 0.00 0.00 0.00 0.00 0.00 0.00 0.00 0.00 0.00 0.00 0.00 0.00 0.00 0.00 0.00 0.00 0.00 0.00 0.00 0.00 0.00 0.00 0.00 0.00 0.00 0.00 0.00 0.00 0.00 0.00 0.00 0.00 0.00 0.00 0.00 0.00 0.00 0.00 0.00 0.00 0.00 0.00 0.00 0.00
MSLP
1011.48 1012.49 1013.61 1014.65 1015.43 1015.80 1015.69 1015.13 1014.21 1013.10 1011.99 1011.04 1010.37 1010.02 1009.93 1010.03 1010.20 1010.34 1010.39 1010.35 1010.25 1010.17 1010.17 1010.29 1010.57 1010.96 1011.40 1011.84 1012.21 1012.50 1012.70 1012.86 1013.01 1013.21 1013.48 1013.82 1014.19 1014.56 1014.88 1015.12 1015.27 1015.36 1015.42 1015.48 1015.58 1015.72 1015.90 1016.10 1016.28
1012.13 1013.30 1014.48 1015.47 1016.08 1016.21 1015.81 1014.93 1013.73 1012.39 1011.14 1010.12 1009.45 1009.15 1009.14 1009.32 1009.58 1009.79 1009.91 1009.93 1009.90 1009.89 1009.97 1010.18 1010.54 1011.01 1011.51 1012.00 1012.41 1012.73 1012.95 1013.13 1013.31 1013.53 1013.81 1014.14 1014.49 1014.82 1015.08 1015.26 1015.36 1015.40 1015.43 1015.48 1015.58 1015.75 1015.96 1016.20 1016.41
1012.94 1014.19 1015.35 1016.21 1016.62 1016.47 1015.77 1014.62 1013.19 1011.71 1010.39 1009.38 1008.77 1008.55 1008.63 1008.89 1009.21 1009.46 1009.61 1009.66 1009.67 1009.71 1009.86 1010.15 1010.58 1011.12 1011.69 1012.22 1012.67 1013.00 1013.24 1013.43 1013.60 1013.82 1014.08 1014.39 1014.71 1014.99 1015.21 1015.33 1015.39 1015.39 1015.41 1015.46 1015.58 1015.78 1016.03 1016.29 1016.54
1013.84 1015.10 1016.16 1016.83 1016.98 1016.56 1015.60 1014.24 1012.67 1011.14 1009.84 1008.91 1008.40 1008.29 1008.47 1008.80 1009.14 1009.41 1009.56 1009.60 1009.62 1009.69 1009.88 1010.22 1010.72 1011.31 1011.93 1012.49 1012.95 1013.29 1013.52 1013.69 1013.86 1014.05 1014.29 1014.56 1014.84 1015.08 1015.26 1015.35 1015.37 1015.37 1015.39 1015.46 1015.61 1015.83 1016.11 1016.41 1016.68
1014.73 1015.92 1016.82 1017.26 1017.15 1016.48 1015.31 1013.82 1012.21 1010.72 1009.52 1008.73 1008.37 1008.39 1008.65 1009.03 1009.38 1009.62 1009.73 1009.75 1009.76 1009.83 1010.04 1010.42 1010.95 1011.57 1012.21 1012.77 1013.23 1013.55 1013.76 1013.91 1014.04 1014.20 1014.41 1014.65 1014.90 1015.11 1015.26 1015.34 1015.36 1015.37 1015.40 1015.49 1015.67 1015.92 1016.23 1016.54 1016.82
1015.50 1016.55 1017.24 1017.44 1017.10 1016.22 1014.93 1013.40 1011.84 1010.47 1009.44 1008.83 1008.63 1008.77 1009.11 1009.50 1009.83 1010.03 1010.09 1010.07 1010.04 1010.11 1010.32 1010.71 1011.25 1011.88 1012.50 1013.04 1013.47 1013.75 1013.93 1014.04 1014.14 1014.28 1014.46 1014.68 1014.91 1015.10 1015.25 1015.33 1015.36 1015.39 1015.45 1015.56 1015.76 1016.03 1016.34 1016.65 1016.93
1016.06 1016.93 1017.39 1017.36 1016.81 1015.80 1014.47 1012.98 1011.55 1010.36 1009.54 1009.12 1009.08 1009.32 1009.70 1010.10 1010.39 1010.53 1010.54 1010.47 1010.42 1010.47 1010.68 1011.07 1011.59 1012.19 1012.77 1013.27 1013.64 1013.88 1014.02 1014.10 1014.18 1014.30 1014.47 1014.67 1014.89 1015.09 1015.24 1015.33 1015.38 1015.42 1015.50 1015.63 1015.84 1016.10 1016.40 1016.69 1016.95
1016.35 1017.00 1017.24 1017.01 1016.32 1015.26 1013.96 1012.59 1011.33 1010.35 1009.74 1009.50 1009.59 1009.90 1010.30 1010.67 1010.92 1011.02 1010.99 1010.90 1010.83 1010.88 1011.08 1011.45 1011.94 1012.49 1013.01 1013.44 1013.75 1013.94 1014.04 1014.09 1014.16 1014.28 1014.45 1014.66 1014.88 1015.09 1015.24 1015.34 1015.40 1015.45 1015.52 1015.65 1015.84 1016.08 1016.36 1016.62 1016.85
1016.33 1016.78 1016.82 1016.45 1015.69 1014.64 1013.43 1012.23 1011.18 1010.41 1009.97 1009.88 1010.05 1010.39 1010.78 1011.12 1011.33 1011.40 1011.35 1011.27 1011.23 1011.29 1011.49 1011.83 1012.28 1012.76 1013.20 1013.55 1013.80 1013.93 1014.00 1014.04 1014.12 1014.24 1014.43 1014.65 1014.88 1015.09 1015.24 1015.34 1015.39 1015.43 1015.49 1015.59 1015.75 1015.96 1016.19 1016.42 1016.61
1016.06 1016.32 1016.21 1015.75 1014.98 1014.01 1012.95 1011.93 1011.09 1010.50 1010.22 1010.21 1010.41 1010.74 1011.10 1011.39 1011.57 1011.64 1011.62 1011.58 1011.57 1011.67 1011.88 1012.20 1012.60 1013.00 1013.35 1013.62 1013.80 1013.89 1013.93 1013.97 1014.05 1014.20 1014.41 1014.65 1014.89 1015.09 1015.24 1015.31 1015.35 1015.36 1015.38 1015.45 1015.56 1015.72 1015.91 1016.10 1016.27
1015.60 1015.71 1015.50 1015.02 1014.30 1013.46 1012.57 1011.75 1011.09 1010.66 1010.46 1010.49 1010.68 1010.95 1011.25 1011.50 1011.67 1011.76 1011.79 1011.82 1011.88 1012.03 1012.26 1012.56 1012.89 1013.22 1013.48 1013.67 1013.77 1013.82 1013.84 1013.89 1013.99 1014.16 1014.38 1014.64 1014.88 1015.08 1015.20 1015.26 1015.26 1015.24 1015.22 1015.24 1015.31 1015.43 1015.57 1015.73 1015.87
1015.08 1015.08 1014.82 1014.36 1013.75 1013.06 1012.37 1011.74 1011.24 1010.90 1010.75 1010.76 1010.89 1011.09 1011.31 1011.52 1011.69 1011.81 1011.92 1012.03 1012.17 1012.37 1012.62 1012.90 1013.18 1013.42 1013.59 1013.70 1013.74 1013.75 1013.76 1013.81 1013.93 1014.11 1014.35 1014.61 1014.85 1015.03 1015.15 1015.18 1015.15 1015.10 1015.05 1015.03 1015.06 1015.14 1015.25 1015.37 1015.49
1014.62 1014.54 1014.28 1013.89 1013.41 1012.89 1012.38 1011.92 1011.55 1011.28 1011.13 1011.08 1011.12 1011.23 1011.38 1011.54 1011.71 1011.88 1012.06 1012.25 1012.47 1012.72 1012.97 1013.22 1013.44 1013.60 1013.69 1013.73 1013.72 1013.69 1013.69 1013.75 1013.87 1014.07 1014.31 1014.56 1014.79 1014.96 1015.06 1015.08 1015.04 1014.97 1014.91 1014.87 1014.88 1014.93 1015.01 1015.11 1015.20
1014.32 1014.20 1013.96 1013.66 1013.32 1012.98 1012.65 1012.33 1012.05 1011.82 1011.63 1011.51 1011.46 1011.47 1011.54 1011.66 1011.83 1012.04 1012.27 1012.53 1012.80 1013.06 1013.31 1013.51 1013.67 1013.76 1013.78 1013.76 1013.71 1013.67 1013.66 1013.71 1013.84 1014.02 1014.25 1014.49 1014.71 1014.87 1014.97 1014.99 1014.96 1014.90 1014.84 1014.81 1014.81 1014.84 1014.90 1014.97 1015.04
1014.21 1014.07 1013.88 1013.68 1013.49 1013.31 1013.13 1012.94 1012.73 1012.50 1012.28 1012.08 1011.92 1011.84 1011.84 1011.92 1012.09 1012.31 1012.58 1012.86 1013.14 1013.39 1013.60 1013.76 1013.85 1013.88 1013.86 1013.80 1013.74 1013.69 1013.68 1013.72 1013.84 1014.00 1014.21 1014.42 1014.62 1014.77 1014.87 1014.92 1014.92 1014.89 1014.86 1014.85 1014.86 1014.89 1014.93 1014.97 1015.00
1014.27 1014.13 1014.00 1013.91 1013.87 1013.84 1013.79 1013.69 1013.53 1013.30 1013.02 1012.75 1012.51 1012.34 1012.28 1012.33 1012.47 1012.69 1012.95 1013.22 1013.48 1013.69 1013.84 1013.94 1013.97 1013.96 1013.92 1013.85 1013.80 1013.76 1013.75 1013.80 1013.89 1014.02 1014.19 1014.37 1014.54 1014.69 1014.80 1014.88 1014.92 1014.94 1014.96 1014.98 1015.00 1015.03 1015.06 1015.06 1015.04
1014.42 1014.30 1014.25 1014.28 1014.37 1014.47 1014.53 1014.51 1014.37 1014.12 1013.80 1013.46 1013.15 1012.92 1012.81 1012.82 1012.93 1013.12 1013.35 1013.58 1013.77 1013.91 1014.00 1014.03 1014.02 1013.99 1013.95 1013.91 1013.89 1013.88 1013.89 1013.93 1014.00 1014.10 1014.21 1014.35 1014.48 1014.62 1014.74 1014.85 1014.94 1015.02 1015.08 1015.14 1015.18 1015.20 1015.20 1015.17 1015.10
1014.57 1014.51 1014.56 1014.72 1014.93 1015.15 1015.30 1015.31 1015.18 1014.91 1014.54 1014.13 1013.77 1013.49 1013.33 1013.31 1013.39 1013.54 1013.72 1013.87 1013.99 1014.04 1014.05 1014.03 1014.00 1013.97 1013.96 1013.97 1014.00 1014.05 1014.09 1014.14 1014.18 1014.23 1014.29 1014.36 1014.46 1014.57 1014.70 1014.83 1014.96 1015.08 1015.19 1015.26 1015.31 1015.33 1015.31 1015.24 1015.11
1014.63 1014.67 1014.85 1015.15 1015.49 1015.81 1016.02 1016.05 1015.90 1015.58 1015.15 1014.69 1014.26 1013.94 1013.76 1013.71 1013.76 1013.87 1013.99 1014.07 1014.10 1014.08 1014.02 1013.95 1013.90 1013.90 1013.94 1014.02 1014.13 1014.24 1014.32 1014.38 1014.40 1014.40 1014.39 1014.41 1014.45 1014.53 1014.65 1014.79 1014.95 1015.09 1015.22 1015.31 1015.36 1015.36 1015.31 1015.20 1015.04
1014.57 1014.76 1015.10 1015.55 1016.03 1016.43 1016.67 1016.70 1016.50 1016.10 1015.59 1015.06 1014.58 1014.22 1014.01 1013.94 1013.98 1014.06 1014.12 1014.15 1014.11 1014.01 1013.90 1013.80 1013.76 1013.79 1013.89 1014.05 1014.24 1014.42 1014.54 1014.61 1014.62 1014.57 1014.51 1014.46 1014.45 1014.49 1014.58 1014.72 1014.87 1015.03 1015.15 1015.24 1015.27 1015.26 1015.18 1015.06 1014.88
1014.40 1014.79 1015.33 1015.95 1016.55 1017.02 1017.27 1017.25 1016.97 1016.47 1015.86 1015.24 1014.69 1014.29 1014.06 1013.99 1014.02 1014.08 1014.13 1014.12 1014.03 1013.89 1013.74 1013.63 1013.59 1013.66 1013.82 1014.05 1014.31 1014.54 1014.72 1014.80 1014.79 1014.71 1014.60 1014.49 1014.42 1014.42 1014.48 1014.59 1014.73 1014.87 1014.99 1015.05 1015.07 1015.03 1014.94 1014.80 1014.62
1014.22 1014.83 1015.58 1016.37 1017.09 1017.61 1017.84 1017.75 1017.35 1016.72 1015.98 1015.24 1014.62 1014.18 1013.93 1013.86 1013.90 1013.99 1014.04 1014.02 1013.92 1013.76 1013.59 1013.47 1013.44 1013.53 1013.73 1014.01 1014.32 1014.59 1014.79 1014.89 1014.87 1014.77 1014.62 1014.47 1014.36 1014.32 1014.34 1014.43 1014.54 1014.65 1014.73 1014.77 1014.76 1014.70 1014.60 1014.47 1014.31
1014.11 1014.94 1015.91 1016.86 1017.68 1018.22 1018.40 1018.21 1017.67 1016.88 1015.99 1015.14 1014.43 1013.93 1013.68 1013.62 1013.70 1013.82 1013.90 1013.91 1013.82 1013.67 1013.49 1013.36 1013.33 1013.42 1013.63 1013.93 1014.26 1014.55 1014.76 1014.86 1014.84 1014.73 1014.57 1014.39 1014.26 1014.18 1014.18 1014.23 1014.31 1014.38 1014.43 1014.44 1014.40 1014.32 1014.21 1014.10 1013.97
1014.15 1015.20 1016.34 1017.43 1018.31 1018.84 1018.96 1018.64 1017.95 1017.00 1015.96 1014.98 1014.18 1013.64 1013.38 1013.35 1013.47 1013.65 1013.80 1013.85 1013.80 1013.66 1013.49 1013.35 1013.30 1013.37 1013.56 1013.83 1014.14 1014.42 1014.63 1014.73 1014.71 1014.60 1014.43 1014.25 1014.11 1014.02 1013.99 1014.01 1014.06 1014.10 1014.11 1014.08 1014.01 1013.91 1013.81 1013.71 1013.62
1014.38 1015.58 1016.86 1018.03 1018.93 1019.43 1019.45 1019.01 1018.17 1017.07 1015.89 1014.81 1013.94 1013.37 1013.12 1013.12 1013.30 1013.55 1013.77 1013.88 1013.87 1013.76 1013.60 1013.45 1013.36 1013.38 1013.52 1013.74 1014.00 1014.24 1014.43 1014.51 1014.49 1014.39 1014.24 1014.07 1013.93 1013.84 1013.80 1013.80 1013.81 1013.81 1013.78 1013.71 1013.61 1013.50 1013.39 1013.30 1013.24
1014.75 1016.05 1017.38 1018.57 1019.45 1019.88 1019.81 1019.25 1018.29 1017.08 1015.81 1014.66 1013.75 1013.18 1012.94 1012.99 1013.24 1013.55 1013.84 1014.02 1014.06 1013.98 1013.82 1013.64 1013.51 1013.47 1013.53 1013.67 1013.86 1014.05 1014.19 1014.26 1014.24 1014.15 1014.02 1013.87 1013.75 1013.66 1013.61 1013.59 1013.57 1013.53 1013.45 1013.35 1013.21 1013.08 1012.96 1012.88 1012.84
1015.18 1016.48 1017.79 1018.94 1019.74 1020.09 1019.93 1019.29 1018.25 1016.99 1015.69 1014.52 1013.63 1013.08 1012.88 1012.99 1013.29 1013.67 1014.02 1014.25 1014.33 1014.28 1014.12 1013.92 1013.74 1013.62 1013.60 1013.65 1013.76 1013.88 1013.98 1014.02 1013.99 1013.92 1013.80 1013.68 1013.57 1013.49 1013.42 1013.38 1013.32 1013.24 1013.12 1012.97 1012.80 1012.63 1012.50 1012.41 1012.38
1015.53 1016.77 1017.98 1019.02 1019.72 1019.97 1019.74 1019.05 1018.00 1016.76 1015.50 1014.39 1013.56 1013.07 1012.94 1013.09 1013.45 1013.87 1014.26 1014.53 1014.64 1014.60 1014.44 1014.22 1013.99 1013.81 1013.71 1013.68 1013.71 1013.77 1013.81 1013.82 1013.79 1013.71 1013.61 1013.50 1013.40 1013.31 1013.23 1013.15 1013.05 1012.92 1012.76 1012.56 1012.35 1012.15 1012.00 1011.89 1011.86
1015.71 1016.80 1017.86 1018.74 1019.31 1019.46 1019.19 1018.50 1017.51 1016.36 1015.22 1014.23 1013.52 1013.13 1013.07 1013.28 1013.67 1014.12 1014.52 1014.80 1014.92 1014.89 1014.72 1014.48 1014.23 1014.00 1013.84 1013.75 1013.71 1013.70 1013.70 1013.68 1013.63 1013.54 1013.44 1013.33 1013.22 1013.11 1013.01 1012.89 1012.75 1012.57 1012.36 1012.12 1011.87 1011.64 1011.45 1011.33 1011.28
1015.65 1016.55 1017.41 1018.11 1018.53 1018.61 1018.31 1017.68 1016.81 1015.82 1014.86 1014.05 1013.49 1013.23 1013.25 1013.50 1013.90 1014.35 1014.73 1015.00 1015.11 1015.07 1014.91 1014.66 1014.39 1014.15 1013.95 1013.81 1013.73 1013.67 1013.63 1013.57 1013.49 1013.39 1013.27 1013.15 1013.01 1012.88 1012.74 1012.58 1012.39 1012.17 1011.91 1011.64 1011.35 1011.10 1010.89 1010.74 1010.67
Thickness
5814 5812 5810 5799 5779 5764 5763 5780 5795 5802 5810 5824 5829 5826 5819 5813 5806 5803 5822 5829 5826 5820 5814 5808 5803 5800 5796 5792 5789 5787 5784 5782 5781 5779 5777 5775 5773 5771 5769 5767 5766 5764 5763 5761 5760 5759 5757 5756 5755
5814 5811 5801 5787 5767 5754 5766 5790 5798 5810 5822 5830 5830 5827 5820 5816 5822 5820 5822 5826 5824 5818 5812 5807 5802 5797 5794 5790 5787 5784 5782 5780 5777 5776 5774 5772 5771 5769 5767 5765 5764 5762 5761 5759 5758 5757 5755 5754 5753
5812 5808 5789 5775 5763 5757 5772 5797 5806 5821 5832 5830 5825 5826 5821 5816 5821 5822 5826 5825 5821 5815 5810 5805 5800 5795 5791 5788 5785 5782 5779 5777 5775 5773 5771 5769 5767 5766 5765 5763 5761 5760 5759 5757 5755 5754 5753 5751 5750
5807 5793 5782 5766 5761 5773 5785 5802 5814 5819 5829 5833 5826 5816 5820 5825 5826 5826 5827 5823 5817 5812 5807 5803 5798 5793 5789 5785 5782 5779 5777 5774 5772 5770 5768 5766 5765 5763 5762 5760 5759 5757 5756 5754 5753 5751 5750 5749 5748
5799 5781 5765 5756 5761 5780 5798 5810 5816 5813 5818 5825 5821 5810 5809 5820 5827 5825 5823 5819 5814 5809 5805 5801 5796 5791 5786 5783 5779 5777 5774 5771 5769 5767 5766 5764 5762 5760 5759 5757 5756 5755 5753 5751 5750 5748 5747 5746 5745
5781 5770 5753 5748 5762 5785 5800 5811 5814 5813 5816 5820 5816 5805 5802 5814 5817 5817 5817 5814 5811 5806 5802 5797 5793 5788 5784 5780 5777 5774 5771 5769 5767 5765 5763 5761 5759 5758 5756 5754 5753 5752 5750 5748 5747 5745 5744 5743 5742
5772 5760 5752 5754 5760 5775 5797 5809 5808 5807 5809 5814 5816 5800 5800 5807 5811 5813 5811 5809 5805 5801 5797 5793 5789 5785 5781 5777 5774 5771 5768 5766 5764 5762 5760 5758 5757 5755 5753 5752 5750 5748 5747 5745 5743 5742 5741 5740 5738
5777 5758 5751 5750 5757 5770 5794 5802 5806 5805 5807 5820 5818 5799 5794 5804 5808 5807 5804 5801 5798 5795 5791 5789 5785 5781 5778 5774 5771 5768 5765 5763 5761 5760 5758 5756 5754 5752 5750 5749 5747 5745 5744 5742 5740 5738 5737 5736 5735
5776 5748 5739 5749 5758 5771 5789 5791 5799 5811 5809 5811 5813 5809 5808 5807 5803 5798 5794 5791 5789 5788 5786 5784 5780 5776 5773 5770 5768 5765 5762 5760 5758 5757 5755 5753 5751 5749 5747 5746 5744 5742 5741 5739 5738 5735 5734 5733 5732
5760 5738 5747 5764 5771 5775 5783 5784 5789 5795 5794 5795 5798 5803 5805 5800 5795 5790 5786 5782 5780 5780 5780 5778 5775 5771 5768 5765 5763 5761 5759 5757 5755 5754 5752 5750 5748 5746 5744 5742 5741 5739 5738 5736 5735 5733 5731 5729 5728
5755 5748 5761 5770 5777 5778 5777 5780 5786 5783 5778 5785 5787 5791 5794 5791 5787 5784 5781 5779 5777 5776 5774 5772 5769 5765 5762 5759 5757 5756 5754 5752 5751 5749 5748 5746 5744 5742 5740 5738 5737 5736 5734 5733 5731 5730 5728 5727 5725
5753 5758 5765 5770 5778 5776 5775 5778 5776 5775 5775 5788 5791 5791 5788 5784 5780 5778 5775 5774 5772 5769 5767 5766 5763 5759 5756 5753 5752 5750 5748 5746 5745 5745 5744 5742 5740 5739 5737 5735 5733 5731 5730 5729 5728 5726 5725 5724 5723
5752 5757 5766 5771 5773 5773 5773 5770 5770 5768 5777 5783 5784 5782 5779 5777 5774 5772 5771 5768 5766 5763 5762 5760 5757 5753 5750 5747 5745 5743 5741 5739 5739 5739 5739 5738 5736 5735 5733 5731 5728 5727 5726 5725 5725 5724 5722 5721 5720
5758 5759 5761 5764 5766 5768 5764 5762 5763 5760 5770 5773 5772 5770 5770 5768 5766 5765 5763 5762 5760 5758 5757 5755 5750 5747 5745 5741 5739 5737 5736 5734 5734 5734 5734 5733 5732 5730 5728 5726 5724 5723 5722 5721 5721 5720 5719 5718 5718
5761 5752 5753 5757 5760 5761 5760 5747 5750 5756 5763 5762 5762 5762 5761 5761 5759 5757 5757 5755 5754 5753 5752 5749 5744 5742 5739 5737 5736 5735 5732 5730 5728 5727 5728 5728 5727 5725 5724 5722 5720 5719 5718 5717 5716 5715 5714 5714 5714
5752 5741 5734 5746 5751 5755 5748 5729 5743 5752 5754 5752 5754 5755 5754 5753 5752 5751 5750 5748 5749 5748 5747 5745 5742 5738 5734 5732 5731 5730 5728 5725 5723 5722 5722 5722 5721 5720 5718 5716 5714 5713 5713 5713 5711 5710 5709 5709 5709
5733 5724 5727 5737 5746 5747 5738 5728 5738 5746 5746 5744 5745 5746 5747 5746 5744 5745 5745 5743 5742 5742 5741 5739 5737 5733 5730 5728 5725 5722 5720 5719 5718 5718 5718 5717 5716 5714 5712 5710 5708 5707 5707 5706 5706 5705 5704 5704 5705
5726 5726 5727 5727 5738 5738 5729 5725 5732 5736 5737 5736 5736 5737 5738 5738 5736 5738 5738 5737 5737 5737 5736 5734 5731 5728 5726 5723 5719 5717 5714 5713 5713 5713 5712 5711 5709 5707 5705 5703 5701 5700 5700 5699 5699 5698 5699 5699 5700
5741 5732 5725 5730 5738 5729 5721 5719 5721 5725 5726 5725 5726 5728 5729 5729 5732 5733 5733 5732 5731 5730 5729 5727 5725 5723 5721 5717 5713 5709 5707 5706 5706 5705 5704 5703 5701 5699 5697 5695 5694 5693 5692 5692 5692 5692 5692 5693 5695
5740 5730 5727 5729 5735 5726 5716 5713 5716 5717 5718 5719 5721 5722 5724 5724 5726 5727 5727 5726 5726 5725 5724 5722 5720 5718 5716 5713 5710 5706 5703 5700 5699 5697 5696 5694 5693 5691 5689 5688 5687 5686 5684 5684 5684 5684 5684 5686 5688
5740 5732 5730 5725 5725 5721 5713 5704 5708 5713 5715 5716 5718 5720 5722 5723 5722 5722 5722 5722 5722 5721 5720 5720 5717 5714 5711 5708 5704 5700 5696 5692 5690 5688 5687 5686 5684 5683 5681 5680 5679 5678 5677 5675 5675 5676 5676 5677 5679
5734 5744 5740 5729 5713 5698 5702 5686 5698 5702 5706 5711 5714 5716 5718 5720 5720 5720 5720 5719 5718 5718 5717 5715 5712 5708 5705 5701 5697 5693 5688 5684 5682 5680 5678 5677 5676 5674 5673 5672 5671 5670 5669 5668 5668 5668 5668 5669 5670
5742 5744 5736 5723 5707 5695 5693 5684 5689 5698 5699 5706 5711 5715 5717 5718 5718 5718 5718 5717 5716 5715 5712 5710 5706 5702 5699 5695 5691 5687 5682 5678 5675 5672 5670 5668 5667 5665 5664 5664 5662 5661 5660 5660 5659 5659 5659 5660 5662
5748 5735 5722 5708 5698 5683 5686 5681 5685 5693 5702 5707 5713 5717 5718 5719 5718 5718 5717 5715 5713 5711 5709 5705 5701 5697 5693 5690 5685 5680 5676 5671 5667 5664 5662 5659 5657 5656 5656 5654 5653 5652 5652 5651 5651 5651 5651 5652 5653
5740 5717 5694 5690 5679 5680 5689 5684 5688 5708 5714 5715 5716 5717 5719 5719 5718 5716 5714 5711 5709 5707 5704 5701 5696 5691 5687 5683 5679 5674 5669 5665 5660 5657 5654 5651 5649 5647 5646 5645 5644 5643 5643 5643 5643 5642 5642 5643 5644
5734 5721 5694 5683 5678 5681 5689 5685 5700 5720 5723 5723 5721 5721 5721 5718 5716 5714 5712 5709 5706 5704 5700 5695 5690 5685 5681 5676 5671 5667 5662 5657 5653 5650 5646 5643 5641 5640 5638 5637 5636 5635 5634 5634 5634 5633 5634 5634 5635
5729 5717 5713 5689 5683 5677 5683 5693 5710 5724 5723 5722 5721 5720 5718 5717 5716 5713 5710 5707 5703 5699 5694 5690 5684 5679 5674 5669 5664 5660 5655 5650 5646 5642 5639 5636 5634 5632 5631 5629 5628 5627 5626 5625 5625 5624 5625 5625 5627
5740 5719 5700 5687 5675 5673 5684 5688 5694 5714 5719 5721 5720 5719 5717 5716 5713 5710 5706 5702 5698 5693 5688 5683 5678 5672 5667 5662 5657 5653 5647 5643 5638 5634 5631 5628 5626 5624 5622 5620 5619 5618 5617 5616 5615 5615 5616 5616 5617
5730 5717 5698 5684 5684 5672 5670 5684 5716 5719 5723 5722 5722 5721 5717 5713 5709 5704 5700 5696 5691 5687 5681 5676 5671 5665 5660 5655 5649 5644 5640 5635 5631 5626 5623 5620 5618 5615 5613 5611 5610 5608 5607 5607 5606 5605 5606 5606 5608
5741 5726 5706 5695 5685 5677 5673 5686 5728 5726 5725 5724 5721 5719 5714 5710 5704 5699 5694 5689 5685 5680 5675 5670 5664 5659 5654 5648 5643 5637 5632 5627 5623 5619 5616 5613 5610 5607 5605 5602 5600 5599 5598 5597 5596 5595 5596 5596 5598